Regional Weather Roundup
Issued by NWS Albany, NY

Home | Current Version | Previous Version | Text Only | Print | Product List | Glossary On
Versions: 1 2 3 4 5 6 7 8 9 10 11 12 13 14 15 16 17 18 19 20 21 22 23 24 25 26 27 28 29 30 31 32 33 34 35 36 37 38 39 40 41 42 43 44 45 46 47 48 49 50
777
ASUS41 KALY 202110
RWRALY

NEW YORK STATE HOURLY WEATHER ROUNDUP
NATIONAL WEATHER SERVICE ALBANY NY
500 PM EDT SUN MAY 20 2018

NOTE: "FAIR" INDICATES FEW OR NO CLOUDS BELOW 12,000 FEET WITH NO
SIGNIFICANT WEATHER AND/OR NO OBSTRUCTIONS TO VISIBILITY.

NYZ032-033-038>043-046>054-057>066-NYZ062>081-082-084-202200-
EAST


CITY           SKY/WX    TMP DP  RH WIND       PRES   REMARKS
ALBANY         PTSUNNY   71  57  61 W15G29    29.96R
GLENS FALLS    FAIR      69  58  67 N12G20    29.96R
POUGHKEEPSIE   PTSUNNY   78  60  53 W12       29.92R
NEWBURGH       PTSUNNY   73  64  73 W17       29.97R
MONTGOMERY     FAIR      74  59  59 NW14G22   29.95R
WHITE PLAINS   PTSUNNY   74  64  71 NW13      29.93R
ISLIP          PTSUNNY   77  64  64 SW9       29.91S
NEW YORK CITY  PTSUNNY   78  60  53 NW16G22   29.91S
CENTRAL PARK   CLOUDY    79  61  53 NW9       29.95S
$$

NYZ005>009-017-018-044>046-055-056-202200-
CENTRAL


CITY           SKY/WX    TMP DP  RH WIND       PRES   REMARKS
FULTON         FAIR      64  55  72 NW14      30.07S
SYRACUSE       PTSUNNY   63  57  81 NW12      30.06S
ROME           FAIR      66  55  67 W10       30.04F
ELMIRA         CLOUDY    64  57  78 NW7       30.08S
BINGHAMTON     PTSUNNY   61  54  77 NW9G18    30.07S
$$

NYZ026>034-041>043-087-202200-
NORTH


CITY           SKY/WX    TMP DP  RH WIND       PRES   REMARKS
WATERTOWN      FAIR      66  51  58 NW12      30.05R
FORT DRUM      NOT AVBL
OGDENSBURG     FAIR      67  46  46 W6        30.04S
MASSENA        FAIR      65  47  52 W12G17    30.03S
SARANAC LAKE   CLOUDY    57  49  74 W9        30.01S
PLATTSBURGH    FAIR      66  49  54 NW9       29.97R
$$

NYZ001>004-010>016-019>021-085-202200-
WEST


CITY           SKY/WX    TMP DP  RH WIND       PRES   REMARKS
NIAGARA FALLS  FAIR      69  51  52 NW7       30.10S
BUFFALO        PTSUNNY   64  53  67 SW16      30.11S
DUNKIRK        FAIR      64  54  69 W12       30.14R
WELLSVILLE     CLOUDY    60  54  80 W7        30.15R
ROCHESTER      CLOUDY    69  56  62 NW7       30.08S
PENN YAN       CLOUDY    63  55  75 W3        30.10R
$$

             KEY
       WCI = WIND CHILL INDEX
       VSB = VISIBILITY
       HX  = HEAT INDEX
$$




USA.gov is the U.S. government's official web portal to all federal, state and local government web resources and services.